ONEWEB-0672, 55831

Orbit data source: Space-Track

ONEWEB-0672, 55831 is a payload satellite owned by One Web (NAA) (UK) in LEO that was launched on Thu, 09 Mar 2023 UTC via an FALCON 9 launch vehicle from the Air Force Eastern Test Range (AFETR). Payload-class satellites include a variety of spacecraft equipped with specific instruments for various scientific and technological missions. These include communications satellites like Starlink; space stations such as the ISS; scientific satellites like the Hubble; Earth observation satellites from companies like Planet Labs, Umbra, and HawkEye 360; GPS; miniature CubeSats for education and research; and military/defense satellites.

Loading next visibility...
Identifier
55831, 2023-029AM
Orbit
LEO
Country
Flag of UKUK
Related business
Manufacturer
One Web
Mission
Operational Commercial Communications
Bus & Motor
ARROW, Unknown motor
Mass
148 kg wet, ~140 kg dry
Launch date (UTC)
2023-03-09 (3 years ago)
Launch vehicle
FALCON 9
Launch site
Air Force Eastern Test Range (AFETR)
Object type
Payload
Rocket body
Debris
Shape & HBR
Trap Box + 2 Pan, 6.7 m
Radar Cross Section
3.464 m², Large (>1 m²)

Expand to show TLE details & history
Last TLE update: 2 days ago

TLE from 2 days ago
0 ONEWEB-0672
1 55831U 23029AM  26171.27507484  .00000067  00000-0  13193-3 0  9995
2 55831  87.9196 273.8193 0002252  98.1643 261.9746 13.20772498161555
Epoch: 2026-06-20T06:36Z
TLE epoch observation values (Epoch: 2026-06-20T06:36:06.466Z)
Latitude
0.00001°
Longitude
-93.69968°
Altitude
1,184.912 km
Speed
7.261 km/s
True Right ascension
18h 15m 16s
True Declination
0° 00' 00"
Sunlit
Object was in full shadow at epoch
Visualization orbit readout
Latitude
Unknown
Longitude
Unknown
Altitude
Unknown
Speed
Unknown
Apparent Right ascension
Unknown
Apparent Declination
Unknown
Sunlit
N/A
Visualization observer readout
Local Sidereal Time
21:38:11
Azimuth
Unknown
Elevation
Unknown
Doppler factor
Unknown
Orbital elements
Apogee altitude
1,180.577 km
Perigee altitude
1,177.173 km
Semi-major axis
7,557.012 km
Eccentricity
0.00023
Inclination
87.9196°
RAAN
273.8193°
Arg. of periapsis
98.1643°
True anomaly
261.94905°
Mean anomaly
261.9746°
Eccentric anomaly
261.96182°
Mean motion
3.30383 °/min
Orbital period
108.96 mins
BSTAR
0.00013193
Loading maneuver chart data...
Computing Atmospheric mass density...
Loading historical data...
Loading historical data...
Loading historical data...
Loading historical data...
Loading historical data...
Loading historical data...
Loading historical data...

Documentation

Showing up to 5 results
|